Simultaneous Nadir Overpasses (SNOs) Predictions

Prediction of SNOs between METOP-A and NOAA-19 Satellite Orbit:

Table of predicted SNOs for the next 14.0 days since TLE Epoch: 10/18/2019
Index Date (METOP-A) Time (METOP-A) Lat,Lon (METOP-A) SZA (METOP-A ) Date (NOAA-19) Time (NOAA-19) Lat,Lon (NOAA-19) SZA (NOAA-19 ) Distance(km) Time Diff (sec)
1 10/25/2019 23:50:32 80.06,-164.60 92.69 10/25/2019 23:49:21 80.04,-164.49 92.66 3.31 71
2 10/26/2019 00:41:14 -80.03, 2.48 87.34 10/26/2019 00:40:27 -80.05, 2.53 87.32 2.38 47
3 10/26/2019 01:31:54 80.05, 169.95 92.70 10/26/2019 01:31:22 80.04, 169.93 92.69 0.63 32
4 10/26/2019 02:22:35 -80.05, -22.68 87.28 10/26/2019 02:22:27 -80.04, -22.73 87.31 2.16 8
5 10/26/2019 03:13:16 80.04, 144.50 92.71 10/26/2019 03:13:23 80.05, 144.35 92.72 3.18 7
6 10/26/2019 04:03:57 -80.04, -48.13 87.28 10/26/2019 04:04:28 -80.04, -48.32 87.28 3.51 31
7 10/26/2019 04:54:38 80.03, 119.04 92.72 10/26/2019 04:55:23 80.03, 119.08 92.74 1.05 45
8 10/26/2019 05:45:19 -80.03, -73.58 87.27 10/26/2019 05:46:28 -80.02, -73.58 87.26 0.62 69




NCC Satellite Simultaneous Nadir Overpasses (SNOs) Prediction Service
